Regional Weather Roundup
Issued by NWS Cleveland, OH

Home | Current Version | Previous Version | Graphics & Text | Print | Product List | Glossary On
Versions: 1 2 3 4 5 6 7 8 9 10 11 12 13 14 15 16 17 18 19 20 21 22 23 24 25 26 27 28 29 30 31 32 33 34 35 36 37 38 39 40 41 42 43 44 45 46 47 48 49 50
000
ASUS41 KCLE 231310
RWRCLE
OHIO REGIONAL WEATHER ROUNDUP
NATIONAL WEATHER SERVICE CLEVELAND, OH
800 AM EST MON JAN 23 2017

NOTE: "FAIR" INDICATES FEW OR NO CLOUDS BELOW 12,000 FEET WITH NO
SIGNIFICANT WEATHER AND/OR OBSTRUCTIONS TO VISIBILITY.

OHZ001>008-015>018-024>027-034-035-043-044-231400-
   NORTHWEST OHIO

CITY           SKY/WX    TMP DP  RH WIND       PRES   REMARKS
DEFIANCE       CLOUDY    42  41  96 NE13      29.62R FOG
FINDLAY        LGT RAIN  39  36  89 NE17      29.57R
TOLEDO EXPRESS CLOUDY    41  41 100 NE13      29.62R FOG
TOLEDO EXEC    LGT RAIN  38  38 100 NE13G24   29.63R
LIMA           LGT RAIN  38  38 100 N15       29.56R
$$

OHZ009>014-019>023-028>033-038-089-231400-
   NORTHEAST OHIO

CITY           SKY/WX    TMP DP  RH WIND       PRES   REMARKS
CLE-HOPKINS    LGT RAIN  40  37  89 NE14      29.61R VSB 1/2
CLE-LAKEFRONT  LGT RAIN  37  36  96 NE16      29.60R FOG
CUY CO. ARPT   LGT RAIN  41  39  93 NE12      29.60R FOG
LORAIN-ELYRIA  RAIN      38  35  89 NE13      29.59R FOG
ASHTABULA      CLOUDY    38  38 100 N6        29.63R FOG
AKRON-CANTON   LGT RAIN  49  45  86 E14       29.54R FOG
WOOSTER        LGT RAIN  48  46  93 NE12      29.54R
MANSFIELD      RAIN      46  46 100 NE12      29.53R FOG
YOUNGSTOWN     LGT RAIN  48  43  82 E15       29.58R
$$

OHZ042-051>053-060>062-070>072-077>081-231400-
  SOUTHWEST OHIO

CITY           SKY/WX    TMP DP  RH WIND       PRES   REMARKS
CINC-COVINGTON LGT RAIN  46  45  96 N15       29.48R FOG
CINC-LUNKEN    LGT RAIN  47  46  97 N13       29.49R
HAMILTON       CLOUDY    45  43  93 N12G23    29.52R
DAYTON         CLOUDY    41  40  96 N12       29.53R
WRIGHT-PAT AFB DRIZZLE   43  43 100 N13       29.51R
DAYTON GENERAL CLOUDY    44  42  93 N15       29.49R
WILMINGTON     LGT RAIN  46  46 100 N16       29.46R FOG
$$

OHZ036-037-039>041-045>050-054>059-063>069-073>076-082>088-231400-
  CENTRAL AND SOUTHEAST OHIO

CITY           SKY/WX    TMP DP  RH WIND       PRES   REMARKS
COLUMBUS       LGT RAIN  52  47  83 NE14      29.46R
OSU AIRPORT    LGT RAIN  45  44  97 N12       29.48R FOG
BOLTON FIELD   CLOUDY    45  45 100 N10       29.47R
RICKENBACK AFB LGT RAIN  51  48  90 NE14      29.45R
NEWARK         LGT RAIN  51  46  83 NE8       29.46R
MARION         LGT RAIN  43  41  93 N15       29.54R FOG
LANCASTER      LGT RAIN  52  47  83 NE13      29.45R
ZANESVILLE     LGT RAIN  50  46  86 NE6       29.46R
NEW PHILLY     NOT AVBL
$$




USA.gov is the U.S. government's official web portal to all federal, state and local government web resources and services.